OK,97,31,820,97,2014-10-01T01:40:00,0,28072590,182683
OK,97,31,820,97,2014-10-01T01:45:00,0,28073037,182683
OK,97,31,820,97,2014-10-01T01:50:00,0,28073486,182683
OK,97,31,820,97,2014-10-01T01:55:00,0,28073804,182683
OK,97,31,820,97,2014-10-01T02:00:00,0,28074252,182683
OK,97,31,820,97,2014-10-01T02:05:00,0,28074695,182683
OK,97,31,820,97,2014-10-01T02:10:00,0,28075141,182683
OK,97,31,820,97,2014-10-01T02:20:00,0,28075590,182683
OK,97,31,820,97,2014-10-01T02:25:00,0,28076422,182683
OK,97,31,820,97,2014-10-01T02:30:00,0,28076871,182683
OK,97,31,820,97,2014-10-01T02:35:00,0,28077320,182683
OK,97,31,820,97,2014-10-01T02:40:00,0,28077728,182683
OK,97,31,820,97,2014-10-01T02:45:00,0,28078172,182683
OK,97,31,820,97,2014-10-01T02:50:00,0,28078617,182683
OK,97,31,820,97,2014-10-01T02:55:00,0,28079066,182683
OK,97,31,820,97,2014-10-01T03:00:00,0,28079508,182683
OK,97,31,820,97,2014-10-01T03:05:00,0,28079957,182683
OK,97,31,820,97,2014-10-01T03:10:00,0,28080297,182683
OK,97,31,820,97,2014-10-01T03:15:00,0,28080740,182683
OK,97,31,820,97,2014-10-01T03:20:00,0,28081189,182683
OK,97,31,820,97,2014-10-01T03:25:00,0,28081636,182683
OK,135,22,820,135,2014-10-01T03:30:00,2,28082085,182683
OK,135,22,820,135,2014-10-01T03:35:00,2,28082525,182683
OK,110,27,820,110,2014-10-01T03:40:00,1,28082952,182683
OK,55,55,820,55,2014-10-01T03:45:00,1,28083399,182683
OK,111,27,820,111,2014-10-01T03:55:00,2,28083848,182683
OK,111,27,820,111,2014-10-01T04:00:00,2,28084297,182683
OK,111,27,820,111,2014-10-01T04:05:00,0,28085163,182683
OK,111,27,820,111,2014-10-01T04:10:00,0,28085609,182683
OK,58,52,820,58,2014-10-01T04:15:00,6,28086057,182683
OK,54,56,820,54,2014-10-01T04:20:00,4,28086501,182683
OK,61,50,820,61,2014-10-01T04:25:00,1,28086948,182683
OK,61,50,820,61,2014-10-01T04:30:00,1,28087393,182683
OK,97,31,820,97,2014-10-01T04:35:00,1,28087842,182683
OK,93,32,820,93,2014-10-01T04:40:00,2,28088273,182683
OK,101,30,820,101,2014-10-01T04:45:00,3,28088715,182683
OK,89,34,820,89,2014-10-01T04:50:00,2,28089148,182683
OK,94,32,820,94,2014-10-01T05:00:00,2,28089594,182683
OK,98,31,820,98,2014-10-01T05:05:00,2,28090043,182683
OK,76,40,820,76,2014-10-01T05:10:00,2,28090836,182683
OK,111,27,820,111,2014-10-01T05:20:00,3,28091285,182683
OK,127,24,820,127,2014-10-01T05:25:00,4,28092151,182683
OK,127,24,820,127,2014-10-01T05:30:00,4,28092596,182683
OK,107,28,820,107,2014-10-01T05:35:00,6,28093037,182683
OK,99,30,820,99,2014-10-01T05:40:00,8,28093468,182683
OK,83,36,820,83,2014-10-01T05:50:00,6,28093916,182683
OK,72,42,820,72,2014-10-01T05:55:00,8,28094772,182683
OK,72,42,820,72,2014-10-01T06:00:00,4,28095219,182683
OK,100,30,820,100,2014-10-01T06:05:00,3,28095668,182683
OK,100,30,820,100,2014-10-01T06:10:00,9,28096086,182683
OK,81,37,820,81,2014-10-01T06:15:00,9,28096530,182683
OK,81,37,820,81,2014-10-01T06:20:00,7,28096968,182683
OK,65,47,820,65,2014-10-01T06:25:00,8,28097413,182683
OK,76,40,820,76,2014-10-01T06:35:00,4,28097862,182683
OK,81,37,820,81,2014-10-01T06:40:00,4,28098745,182683
OK,58,52,820,58,2014-10-01T06:45:00,6,28099191,182683
OK,52,58,820,52,2014-10-01T06:50:00,3,28099540,182683
OK,88,34,820,88,2014-10-01T06:55:00,3,28099983,182683
OK,89,34,820,89,2014-10-01T07:00:00,5,28100295,182683
OK,54,56,820,54,2014-10-01T07:05:00,7,28100739,182683
OK,90,34,820,90,2014-10-01T07:10:00,18,28101114,182683
OK,98,31,820,98,2014-10-01T07:15:00,28,28101559,182683
OK,110,27,820,110,2014-10-01T07:20:00,17,28101997,182683
OK,124,24,820,124,2014-10-01T07:30:00,8,28102444,182683
OK,117,26,820,117,2014-10-01T07:40:00,5,28103318,182683
OK,117,26,820,117,2014-10-01T07:45:00,8,28104209,182683
OK,116,26,820,116,2014-10-01T07:50:00,7,28104650,182683
OK,128,23,820,128,2014-10-01T07:55:00,6,28105094,182683
OK,107,28,820,107,2014-10-01T08:00:00,15,28105536,182683
OK,96,31,820,96,2014-10-01T08:05:00,19,28105983,182683
OK,85,36,820,85,2014-10-01T08:10:00,17,28106421,182683
OK,126,24,820,126,2014-10-01T08:15:00,11,28106830,182683
OK,108,28,820,108,2014-10-01T08:20:00,7,28107258,182683
OK,80,38,820,80,2014-10-01T08:25:00,3,28107707,182683
OK,110,27,820,110,2014-10-01T08:30:00,3,28108147,182683
OK,113,27,820,113,2014-10-01T08:35:00,4,28108595,182683
OK,113,27,820,113,2014-10-01T08:40:00,4,28109026,182683
OK,106,28,820,106,2014-10-01T08:45:00,10,28109472,182683
OK,100,30,820,100,2014-10-01T08:50:00,7,28109819,182683
OK,123,24,820,123,2014-10-01T08:55:00,3,28110264,182683
OK,111,27,820,111,2014-10-01T09:00:00,7,28110690,182683
OK,77,39,820,77,2014-10-01T09:05:00,7,28111136,182683
OK,71,43,820,71,2014-10-01T09:10:00,6,28111567,182683
OK,84,36,820,84,2014-10-01T09:15:00,6,28112014,182683
OK,89,34,820,89,2014-10-01T09:20:00,6,28112358,182683
OK,101,30,820,101,2014-10-01T09:25:00,8,28112804,182683
OK,120,25,820,120,2014-10-01T09:30:00,6,28113231,182683
OK,119,25,820,119,2014-10-01T09:35:00,11,28113677,182683
OK,115,26,820,115,2014-10-01T09:40:00,11,28114110,182683
OK,93,32,820,93,2014-10-01T09:45:00,7,28114558,182683
OK,135,22,820,135,2014-10-01T09:50:00,1,28114914,182683
OK,48,63,820,48,2014-10-01T09:55:00,5,28115361,182683
OK,55,55,820,55,2014-10-01T10:00:00,8,28115777,182683
OK,128,23,820,128,2014-10-01T10:05:00,7,28116222,182683
OK,105,29,820,105,2014-10-01T10:10:00,5,28116634,182683
OK,105,29,820,105,2014-10-01T10:15:00,3,28117079,182683
OK,90,34,820,90,2014-10-01T10:20:00,5,28117506,182683
OK,87,35,820,87,2014-10-01T10:25:00,8,28117953,182683
OK,95,32,820,95,2014-10-01T10:30:00,6,28118398,182683
OK,55,55,820,55,2014-10-01T10:35:00,5,28118846,182683
OK,109,28,820,109,2014-10-01T10:40:00,6,28119289,182683
OK,109,28,820,109,2014-10-01T10:45:00,4,28119737,182683
OK,115,26,820,115,2014-10-01T10:50:00,6,28120185,182683
OK,91,33,820,91,2014-10-01T10:55:00,11,28120634,182683
OK,111,27,820,111,2014-10-01T11:00:00,11,28121020,182683
OK,120,25,820,120,2014-10-01T11:05:00,7,28121466,182683
OK,75,40,820,75,2014-10-01T11:10:00,3,28121905,182683
OK,126,24,820,126,2014-10-01T11:15:00,3,28122353,182683
OK,126,24,820,126,2014-10-01T11:20:00,3,28122795,182683
OK,48,63,820,48,2014-10-01T11:25:00,1,28123243,182683
OK,117,26,820,117,2014-10-01T11:30:00,7,28123677,182683
OK,121,25,820,121,2014-10-01T11:35:00,7,28124124,182683
OK,92,33,820,92,2014-10-01T11:40:00,6,28124531,182683
OK,70,43,820,70,2014-10-01T11:45:00,5,28124975,182683
OK,122,25,820,122,2014-10-01T11:50:00,18,28125405,182683
OK,131,23,820,131,2014-10-01T11:55:00,25,28125853,182683
OK,234,13,820,234,2014-10-01T12:00:00,15,28126207,182683
OK,229,13,820,229,2014-10-01T12:05:00,9,28126654,182683
OK,206,14,820,206,2014-10-01T12:10:00,6,28127103,182683
OK,128,23,820,128,2014-10-01T12:15:00,6,28127552,182683
OK,130,23,820,130,2014-10-01T12:20:00,6,28127982,182683
OK,127,24,820,127,2014-10-01T12:25:00,5,28128429,182683
OK,127,24,820,127,2014-10-01T12:30:00,1,28128865,182683
OK,132,23,820,132,2014-10-01T12:35:00,7,28129313,182683
OK,122,25,820,122,2014-10-01T12:40:00,10,28129748,182683
OK,91,33,820,91,2014-10-01T12:45:00,13,28130196,182683
OK,93,32,820,93,2014-10-01T12:50:00,19,28130626,182683
OK,103,29,820,103,2014-10-01T12:55:00,8,28131073,182683
OK,114,26,820,114,2014-10-01T13:00:00,4,28131512,182683
OK,130,23,820,130,2014-10-01T13:05:00,5,28131959,182683
OK,128,23,820,128,2014-10-01T13:10:00,11,28132398,182683
OK,123,24,820,123,2014-10-01T13:15:00,9,28132844,182683
OK,141,21,820,141,2014-10-01T13:20:00,8,28133282,182683
OK,137,22,820,137,2014-10-01T13:25:00,12,28133731,182683
OK,103,29,820,103,2014-10-01T13:30:00,11,28134170,182683
OK,62,49,820,62,2014-10-01T13:35:00,8,28134619,182683
OK,55,55,820,55,2014-10-01T13:40:00,5,28135039,182683
OK,53,57,820,53,2014-10-01T13:45:00,7,28135487,182683
OK,69,44,820,69,2014-10-01T13:50:00,4,28135924,182683
OK,88,34,820,88,2014-10-01T13:55:00,3,28136373,182683
OK,55,55,820,55,2014-10-01T14:00:00,3,28136813,182683
OK,45,68,820,45,2014-10-01T14:05:00,1,28137262,182683
OK,59,51,820,59,2014-10-01T14:10:00,4,28137697,182683
OK,56,54,820,56,2014-10-01T14:15:00,2,28138145,182683
OK,52,58,820,52,2014-10-01T14:20:00,1,28138574,182683
OK,96,31,820,96,2014-10-01T14:25:00,5,28139022,182683
OK,121,25,820,121,2014-10-01T14:30:00,4,28139434,182683
OK,117,26,820,117,2014-10-01T14:35:00,3,28139882,182683
OK,106,28,820,106,2014-10-01T14:40:00,2,28140325,182683
OK,55,55,820,55,2014-10-01T14:45:00,1,28140773,182683
OK,134,22,820,134,2014-10-01T14:50:00,3,28141201,182683
OK,96,31,820,96,2014-10-01T14:55:00,9,28141648,182683
OK,101,30,820,101,2014-10-01T15:00:00,4,28142078,182683
OK,67,45,820,67,2014-10-01T15:05:00,3,28142525,182683
OK,52,58,820,52,2014-10-01T15:10:00,4,28142955,182683
OK,61,50,820,61,2014-10-01T15:15:00,16,28143401,182683
OK,107,28,820,107,2014-10-01T15:20:00,16,28143849,182683
OK,100,30,820,100,2014-10-01T15:25:00,6,28144298,182683
OK,53,57,820,53,2014-10-01T15:30:00,4,28144724,182683
OK,56,54,820,56,2014-10-01T15:35:00,4,28145133,182683
OK,94,32,820,94,2014-10-01T15:40:00,5,28145582,182683
OK,94,32,820,94,2014-10-01T15:45:00,3,28146031,182683
OK,83,36,820,83,2014-10-01T15:55:00,5,28146480,182683
OK,83,36,820,83,2014-10-01T16:00:00,1,28147333,182683
OK,83,36,820,83,2014-10-01T16:05:00,0,28147781,182683
OK,78,39,820,78,2014-10-01T16:10:00,4,28148184,182683
OK,128,23,820,128,2014-10-01T16:15:00,4,28148631,182683
OK,125,24,820,125,2014-10-01T16:20:00,6,28149072,182683
OK,123,24,820,123,2014-10-01T16:25:00,7,28149519,182683
OK,102,30,820,102,2014-10-01T16:30:00,2,28149948,182683
OK,92,33,820,92,2014-10-01T16:35:00,0,28150394,182683
OK,110,27,820,110,2014-10-01T16:40:00,15,28150815,182683
OK,106,28,820,106,2014-10-01T16:45:00,19,28151261,182683
OK,109,28,820,109,2014-10-01T16:55:00,3,28151710,182683
OK,111,27,820,111,2014-10-01T17:00:00,0,28152159,182683
OK,111,27,820,111,2014-10-01T17:05:00,0,28152605,182683
OK,110,27,820,110,2014-10-01T17:10:00,5,28153052,182683
OK,105,29,820,105,2014-10-01T17:15:00,6,28153501,182683
OK,87,35,820,87,2014-10-01T17:20:00,3,28153916,182683
OK,90,34,820,90,2014-10-01T17:25:00,4,28154360,182683
OK,93,32,820,93,2014-10-01T17:30:00,3,28154802,182683
OK,62,49,820,62,2014-10-01T17:35:00,0,28155250,182683
OK,70,43,820,70,2014-10-01T17:40:00,5,28155672,182683
OK,61,50,820,61,2014-10-01T17:45:00,2,28156117,182683
OK,102,30,820,102,2014-10-01T17:50:00,3,28156566,182683
OK,80,38,820,80,2014-10-01T17:55:00,4,28157004,182683
OK,58,52,820,58,2014-10-01T18:00:00,1,28157437,182683
OK,91,33,820,91,2014-10-01T18:05:00,2,28157882,182683
OK,84,36,820,84,2014-10-01T18:10:00,2,28158326,182683
OK,82,37,820,82,2014-10-01T18:15:00,4,28158773,182683
OK,85,36,820,85,2014-10-01T18:20:00,5,28159218,182683
OK,85,36,820,85,2014-10-01T18:25:00,4,28159554,182683
OK,60,51,820,60,2014-10-01T18:30:00,3,28160002,182683
OK,108,28,820,108,2014-10-01T18:35:00,1,28160451,182683
OK,80,38,820,80,2014-10-01T18:40:00,4,28160891,182683
OK,80,38,820,80,2014-10-01T18:45:00,7,28161338,182683
OK,86,35,820,86,2014-10-01T18:50:00,5,28161756,182683
OK,99,30,820,99,2014-10-01T19:00:00,7,28162204,182683
OK,88,34,820,88,2014-10-01T19:05:00,5,28163038,182683
OK,96,31,820,96,2014-10-01T19:10:00,4,28163485,182683
OK,120,25,820,120,2014-10-01T19:15:00,2,28163934,182683
OK,89,34,820,89,2014-10-01T19:20:00,4,28164367,182683
OK,81,37,820,81,2014-10-01T19:25:00,3,28164814,182683
OK,77,39,820,77,2014-10-01T19:30:00,1,28165241,182683
OK,102,30,820,102,2014-10-01T19:35:00,1,28165687,182683
OK,102,30,820,102,2014-10-01T19:40:00,1,28166128,182683
OK,102,30,820,102,2014-10-01T19:45:00,0,28166490,182683
OK,129,23,820,129,2014-10-01T19:50:00,3,28166939,182683
OK,131,23,820,131,2014-10-01T19:55:00,2,28167368,182683
OK,95,32,820,95,2014-10-01T20:00:00,1,28167802,182683
OK,72,42,820,72,2014-10-01T20:05:00,2,28168250,182683
OK,88,34,820,88,2014-10-01T20:10:00,3,28168695,182683
OK,88,34,820,88,2014-10-01T20:15:00,5,28169144,182683
OK,76,40,820,76,2014-10-01T20:20:00,6,28169592,182683
OK,49,62,820,49,2014-10-01T20:25:00,3,28170018,182683
OK,94,32,820,94,2014-10-01T20:30:00,2,28170463,182683
OK,97,31,820,97,2014-10-01T20:35:00,1,28170911,182683
OK,88,34,820,88,2014-10-01T20:40:00,2,28171348,182683
OK,81,37,820,81,2014-10-01T20:45:00,3,28171794,182683
OK,65,47,820,65,2014-10-01T20:50:00,2,28172242,182683
OK,121,25,820,121,2014-10-01T20:55:00,1,28172688,182683
OK,86,35,820,86,2014-10-01T21:00:00,2,28173134,182683
OK,95,32,820,95,2014-10-01T21:05:00,2,28173583,182683
OK,54,56,820,54,2014-10-01T21:10:00,2,28174024,182683
OK,54,56,820,54,2014-10-01T21:15:00,3,28174473,182683
OK,66,46,820,66,2014-10-01T21:20:00,1,28174899,182683
OK,49,62,820,49,2014-10-01T21:25:00,2,28175295,182683
OK,39,78,820,39,2014-10-01T21:30:00,1,28175744,182683
OK,39,78,820,39,2014-10-01T21:35:00,0,28176193,182683
OK,105,29,820,105,2014-10-01T21:45:00,1,28176642,182683
OK,87,35,820,87,2014-10-01T21:50:00,2,28177438,182683
OK,87,35,820,87,2014-10-01T21:55:00,0,28177884,182683
OK,87,35,820,87,2014-10-01T22:00:00,0,28178333,182683
OK,87,35,820,87,2014-10-01T22:05:00,0,28178780,182683
OK,87,35,820,87,2014-10-01T22:10:00,0,28179216,182683
OK,87,35,820,87,2014-10-01T22:15:00,0,28179657,182683
OK,87,35,820,87,2014-10-01T22:20:00,0,28180104,182683
OK,87,35,820,87,2014-10-01T22:25:00,0,28180503,182683
OK,87,35,820,87,2014-10-01T22:30:00,0,28180951,182683
OK,89,34,820,89,2014-10-01T22:35:00,1,28181375,182683
OK,89,34,820,89,2014-10-01T22:40:00,0,28181823,182683
OK,89,34,820,89,2014-10-01T22:45:00,0,28182270,182683
OK,89,34,820,89,2014-10-01T22:50:00,0,28182719,182683
OK,62,49,820,62,2014-10-01T22:55:00,2,28183136,182683
OK,62,49,820,62,2014-10-01T23:00:00,2,28183569,182683
OK,62,49,820,62,2014-10-01T23:05:00,0,28184014,182683
OK,62,49,820,62,2014-10-01T23:10:00,0,28184463,182683
OK,62,49,820,62,2014-10-01T23:15:00,0,28184898,182683
OK,62,49,820,62,2014-10-01T23:20:00,0,28185346,182683
OK,62,49,820,62,2014-10-01T23:25:00,0,28185777,182683
OK,62,49,820,62,2014-10-01T23:30:00,0,28186169,182683
OK,62,49,820,62,2014-10-01T23:40:00,0,28187016,182683
OK,79,38,820,79,2014-10-01T23:45:00,1,28187458,182683
OK,79,38,820,79,2014-10-01T23:50:00,1,28187907,182683
OK,79,38,820,79,2014-10-01T23:55:00,0,28188348,182683
OK,79,38,820,79,2014-10-02T00:00:00,0,28188784,182683
OK,79,38,820,79,2014-10-02T00:05:00,0,28189233,182683
OK,79,38,820,79,2014-10-02T00:10:00,0,28189658,182683
OK,79,38,820,79,2014-10-02T00:15:00,0,28190104,182683
OK,79,38,820,79,2014-10-02T00:20:00,0,28190460,182683
OK,79,38,820,79,2014-10-02T00:25:00,0,28190906,182683
OK,79,38,820,79,2014-10-02T00:30:00,0,28191355,182683
OK,79,38,820,79,2014-10-02T00:35:00,0,28191664,182683
OK,79,38,820,79,2014-10-02T00:40:00,0,28192110,182683
OK,79,38,820,79,2014-10-02T00:45:00,0,28192544,182683
OK,79,38,820,79,2014-10-02T00:50:00,0,28192987,182683
OK,79,38,820,79,2014-10-02T00:55:00,0,28193354,182683
OK,79,38,820,79,2014-10-02T01:05:00,0,28194252,182683
OK,79,38,820,79,2014-10-02T01:15:00,0,28194701,182683
OK,72,42,820,72,2014-10-02T01:20:00,1,28195386,182683
OK,72,42,820,72,2014-10-02T01:30:00,0,28195835,182683
OK,72,42,820,72,2014-10-02T01:35:00,0,28196568,182683
OK,72,42,820,72,2014-10-02T01:40:00,0,28196993,182683
OK,72,42,820,72,2014-10-02T01:45:00,0,28197440,182683
OK,72,42,820,72,2014-10-02T01:50:00,0,28197888,182683
OK,72,42,820,72,2014-10-02T01:55:00,0,28198336,182683
OK,103,29,820,103,2014-10-02T02:05:00,0,28198785,182683
OK,103,29,820,103,2014-10-02T02:10:00,0,28199599,182683
OK,103,29,820,103,2014-10-02T02:15:00,0,28200041,182683
OK,103,29,820,103,2014-10-02T02:20:00,0,28200484,182683
OK,103,29,820,103,2014-10-02T02:25:00,0,28200933,182683
OK,103,29,820,103,2014-10-02T02:30:00,0,28201364,182683
OK,103,29,820,103,2014-10-02T02:45:00,0,28202262,182683
OK,103,29,820,103,2014-10-02T02:50:00,0,28202704,182683
OK,103,29,820,103,2014-10-02T02:55:00,0,28203152,182683
OK,103,29,820,103,2014-10-02T03:00:00,0,28203587,182683
OK,78,39,820,78,2014-10-02T03:10:00,1,28204036,182683
OK,78,39,820,78,2014-10-02T03:25:00,0,28204485,182683
OK,78,39,820,78,2014-10-02T03:30:00,0,28204934,182683
OK,78,39,820,78,2014-10-02T03:35:00,0,28205364,182683
OK,78,39,820,78,2014-10-02T03:40:00,0,28205809,182683
OK,78,39,820,78,2014-10-02T03:45:00,0,28206192,182683
OK,78,39,820,78,2014-10-02T03:55:00,0,28207090,182683
OK,78,39,820,78,2014-10-02T04:00:00,0,28207512,182683
OK,78,39,820,78,2014-10-02T04:05:00,0,28207958,182683
OK,58,52,820,58,2014-10-02T04:10:00,2,28208388,182683
OK,58,52,820,58,2014-10-02T04:15:00,0,28208834,182683
OK,58,52,820,58,2014-10-02T04:20:00,0,28209273,182683
OK,58,52,820,58,2014-10-02T04:25:00,0,28209721,182683
OK,49,62,820,49,2014-10-02T04:30:00,4,28210145,182683
OK,74,41,820,74,2014-10-02T04:35:00,1,28210593,182683
OK,50,61,820,50,2014-10-02T04:40:00,3,28211022,182683
OK,50,61,820,50,2014-10-02T04:45:00,0,28211462,182683
OK,50,61,820,50,2014-10-02T04:50:00,0,28211840,182683
OK,98,31,820,98,2014-10-02T04:55:00,1,28212289,182683
OK,98,31,820,98,2014-10-02T05:00:00,0,28212719,182683
OK,61,50,820,61,2014-10-02T05:05:00,1,28213167,182683
OK,61,50,820,61,2014-10-02T05:10:00,1,28213606,182683
OK,61,50,820,61,2014-10-02T05:15:00,3,28214054,182683
OK,50,61,820,50,2014-10-02T05:20:00,1,28214471,182683
OK,102,30,820,102,2014-10-02T05:25:00,7,28214916,182683
OK,57,53,820,57,2014-10-02T05:30:00,3,28215336,182683
OK,47,65,820,47,2014-10-02T05:40:00,1,28215781,182683
OK,47,65,820,47,2014-10-02T05:45:00,1,28216560,182683
OK,47,65,820,47,2014-10-02T05:50:00,0,28217007,182683
OK,89,34,820,89,2014-10-02T05:55:00,4,28217456,182683
OK,77,39,820,77,2014-10-02T06:00:00,5,28217895,182683
OK,59,51,820,59,2014-10-02T06:05:00,4,28218344,182683
OK,53,57,820,53,2014-10-02T06:10:00,0,28218767,182683
OK,70,43,820,70,2014-10-02T06:15:00,8,28219213,182683
OK,108,28,820,108,2014-10-02T06:20:00,1,28219588,182683
OK,80,38,820,80,2014-10-02T06:25:00,2,28220035,182683
OK,58,52,820,58,2014-10-02T06:30:00,7,28220471,182683
OK,87,35,820,87,2014-10-02T06:40:00,2,28220918,182683
OK,58,52,820,58,2014-10-02T06:45:00,2,28221585,182683
OK,120,25,820,120,2014-10-02T07:00:00,26,28222179,182683
OK,101,30,820,101,2014-10-02T07:05:00,13,28222628,182683
OK,74,41,820,74,2014-10-02T07:10:00,3,28223061,182683
OK,74,41,820,74,2014-10-02T07:15:00,1,28223495,182683
OK,74,41,820,74,2014-10-02T07:20:00,0,28223942,182683
OK,97,31,820,97,2014-10-02T07:25:00,1,28224297,182683
OK,97,31,820,97,2014-10-02T07:30:00,1,28224746,182683
OK,119,25,820,119,2014-10-02T07:35:00,2,28225195,182683
OK,113,27,820,113,2014-10-02T07:40:00,1,28225522,182683
OK,115,26,820,115,2014-10-02T07:50:00,5,28226408,182683
OK,111,27,820,111,2014-10-02T07:55:00,6,28226856,182683
OK,90,34,820,90,2014-10-02T08:00:00,2,28227275,182683
OK,71,43,820,71,2014-10-02T08:05:00,14,28227720,182683
OK,128,23,820,128,2014-10-02T08:10:00,1,28228082,182683
OK,99,30,820,99,2014-10-02T08:15:00,2,28228528,182683
OK,99,30,820,99,2014-10-02T08:20:00,0,28228941,182683
OK,118,25,820,118,2014-10-02T08:25:00,2,28229387,182683
OK,118,25,820,118,2014-10-02T08:30:00,0,28229741,182683
OK,125,24,820,125,2014-10-02T08:40:00,0,28230186,182683
OK,125,24,820,125,2014-10-02T08:45:00,0,28231001,182683
OK,114,26,820,114,2014-10-02T08:50:00,3,28231426,182683
OK,214,14,820,214,2014-10-02T08:55:00,1,28231873,182683
OK,111,27,820,111,2014-10-02T09:00:00,3,28232218,182683
OK,111,27,820,111,2014-10-02T09:10:00,0,28232664,182683
OK,90,34,820,90,2014-10-02T09:15:00,5,28233113,182683
OK,89,34,820,89,2014-10-02T09:20:00,2,28233539,182683
OK,122,25,820,122,2014-10-02T09:25:00,4,28233986,182683
OK,125,24,820,125,2014-10-02T09:30:00,2,28234321,182683
OK,113,27,820,113,2014-10-02T09:35:00,2,28234768,182683
OK,107,28,820,107,2014-10-02T09:40:00,0,28235195,182683
OK,118,25,820,118,2014-10-02T09:45:00,5,28235644,182683
OK,114,26,820,114,2014-10-02T09:50:00,0,28236088,182683
OK,113,27,820,113,2014-10-02T09:55:00,6,28236534,182683
OK,72,42,820,72,2014-10-02T10:00:00,4,28236939,182683
OK,48,63,820,48,2014-10-02T10:05:00,0,28237385,182683
OK,84,36,820,84,2014-10-02T10:10:00,7,28237833,182683
OK,80,38,820,80,2014-10-02T10:15:00,4,28238281,182683
OK,105,29,820,105,2014-10-02T10:20:00,4,28238722,182683
OK,101,30,820,101,2014-10-02T10:25:00,3,28239170,182683
OK,109,28,820,109,2014-10-02T10:30:00,0,28239601,182683
OK,105,29,820,105,2014-10-02T10:35:00,6,28240049,182683
OK,104,29,820,104,2014-10-02T10:40:00,6,28240494,182683
OK,102,30,820,102,2014-10-02T10:45:00,2,28240942,182683
OK,115,26,820,115,2014-10-02T10:50:00,1,28241376,182683
OK,110,27,820,110,2014-10-02T10:55:00,6,28241822,182683
OK,126,24,820,126,2014-10-02T11:00:00,1,28242220,182683
OK,126,24,820,126,2014-10-02T11:05:00,0,28242667,182683
OK,143,21,820,143,2014-10-02T11:15:00,6,28243116,182683
OK,127,24,820,127,2014-10-02T11:20:00,2,28243880,182683
OK,126,24,820,126,2014-10-02T11:25:00,0,28244309,182683
OK,126,24,820,126,2014-10-02T11:30:00,0,28244757,182683
OK,108,28,820,108,2014-10-02T11:35:00,3,28245206,182683
OK,108,28,820,108,2014-10-02T11:40:00,1,28245615,182683
OK,108,28,820,108,2014-10-02T11:45:00,0,28246061,182683
OK,101,30,820,101,2014-10-02T11:50:00,25,28246498,182683
OK,120,25,820,120,2014-10-02T11:55:00,33,28246947,182683
OK,167,18,820,167,2014-10-02T12:00:00,23,28247393,182683
OK,249,12,820,249,2014-10-02T12:05:00,8,28247825,182683
OK,277,11,820,277,2014-10-02T12:10:00,0,28248272,182683
OK,124,24,820,124,2014-10-02T12:15:00,3,28248720,182683
OK,125,24,820,125,2014-10-02T12:20:00,2,28249148,182683
OK,113,27,820,113,2014-10-02T12:25:00,7,28249591,182683
OK,104,29,820,104,2014-10-02T12:30:00,6,28250010,182683
OK,123,24,820,123,2014-10-02T12:35:00,7,28250408,182683
OK,99,30,820,99,2014-10-02T12:45:00,16,28251188,182683
OK,127,24,820,127,2014-10-02T13:20:00,5,28251733,182683
OK,90,34,820,90,2014-10-02T13:30:00,10,28252317,182683
OK,90,34,820,90,2014-10-02T13:35:00,8,28252759,182683
OK,65,47,820,65,2014-10-02T13:40:00,0,28253176,182683
OK,65,47,820,65,2014-10-02T13:45:00,2,28253625,182683
OK,76,40,820,76,2014-10-02T13:50:00,1,28254031,182683
OK,97,31,820,97,2014-10-02T13:55:00,12,28254351,182683
OK,59,51,820,59,2014-10-02T14:10:00,6,28254928,182683
OK,54,56,820,54,2014-10-02T14:15:00,6,28255377,182683
OK,54,56,820,54,2014-10-02T14:20:00,1,28255805,182683
OK,54,56,820,54,2014-10-02T14:25:00,0,28256254,182683
OK,81,37,820,81,2014-10-02T14:30:00,4,28256682,182683
OK,54,56,820,54,2014-10-02T14:35:00,8,28257131,182683
OK,62,49,820,62,2014-10-02T14:40:00,8,28257572,182683
OK,79,38,820,79,2014-10-02T14:45:00,2,28258020,182683
OK,55,55,820,55,2014-10-02T14:50:00,5,28258453,182683
OK,54,56,820,54,2014-10-02T14:55:00,6,28258899,182683
OK,82,37,820,82,2014-10-02T15:00:00,6,28259348,182683
OK,82,37,820,82,2014-10-02T15:05:00,4,28259795,182683
OK,59,51,820,59,2014-10-02T15:10:00,6,28260228,182683
OK,102,30,820,102,2014-10-02T15:15:00,17,28260677,182683
OK,106,28,820,106,2014-10-02T15:20:00,12,28261117,182683
OK,105,29,820,105,2014-10-02T15:25:00,12,28261499,182683
OK,109,28,820,109,2014-10-02T15:30:00,3,28261929,182683
OK,63,48,820,63,2014-10-02T15:35:00,7,28262376,182683
OK,63,48,820,63,2014-10-02T15:40:00,5,28262822,182683
OK,54,56,820,54,2014-10-02T15:45:00,4,28263260,182683
OK,59,51,820,59,2014-10-02T15:50:00,2,28263701,182683
OK,55,55,820,55,2014-10-02T15:55:00,0,28264103,182683
OK,55,55,820,55,2014-10-02T16:00:00,0,28264552,182683
OK,53,57,820,53,2014-10-02T16:05:00,1,28264990,182683
OK,54,56,820,54,2014-10-02T16:10:00,3,28265430,182683
OK,56,54,820,56,2014-10-02T16:15:00,0,28265826,182683
OK,115,26,820,115,2014-10-02T16:20:00,3,28266275,182683
OK,112,27,820,112,2014-10-02T16:25:00,7,28266724,182683
OK,115,26,820,115,2014-10-02T16:30:00,9,28267047,182683
OK,96,31,820,96,2014-10-02T16:35:00,2,28267496,182683
OK,64,47,820,64,2014-10-02T16:40:00,0,28267945,182683
OK,127,24,820,127,2014-10-02T16:45:00,2,28268387,182683